CZ-6A DEB, 61417

Orbit data source: Space-Track

CZ-6A DEB, 61417 is space debris in LEO originally from a launch on Tue, 06 Aug 2024 UTC launched from the Taiyaun Space Center, China (TSC). Debris objects in space refer to the collection of defunct objects orbiting the Earth. Examples of debris include non-operational satellites, rocket bodies, and fragments generated from explosions, collisions, or faulty payload assembly.

Loading next visibility...
Identifier
61417, 2024-140YJ
Orbit
LEO
Country
Flag of CNCN / PRC
Related business
Manufacturer
SAST
Mission
Spacecraft
Bus & Motor
Unknown
Mass
Unknown
Launch date (UTC)
2024-08-06 (1 year ago)
Launch vehicle
Unknown
Launch site
Taiyaun Space Center, China (TSC)
Object type
Payload
Rocket body
Debris
Shape & HBR
Unknown shape, 0.1 m
Radar Cross Section
Small (<0.1 m²)

Expand to show TLE details & history
Last TLE update: 19 hours ago

TLE from 19 hours ago
0 CZ-6A DEB
1 61417U 24140YJ  25348.81125651  .00017371  00000-0  16276-2 0  9994
2 61417  88.9678 288.1912 0113212  70.5170 290.8247 14.89141342 68179
Epoch: 2025-12-14T19:28Z
TLE epoch observation values (Epoch: 2025-12-14T19:28:12.562Z)
Latitude
-0.00003°
Longitude
-87.57996°
Altitude
576.461 km
Speed
7.587 km/s
True Right ascension
19h 12m 45s
True Declination
0° 00' 00"
Sunlit
Object was in daylight at epoch
Visualization orbit readout
Latitude
Unknown
Longitude
Unknown
Altitude
Unknown
Speed
Unknown
Apparent Right ascension
Unknown
Apparent Declination
Unknown
Sunlit
N/A
Visualization observer readout
Local Sidereal Time
13:19:01
Azimuth
Unknown
Elevation
Unknown
Doppler factor
Unknown
Orbital elements
Apogee altitude
676.442 km
Perigee altitude
518.497 km
Semi-major axis
6,975.606 km
Eccentricity
0.01132
Inclination
88.9678°
RAAN
288.1912°
Arg. of periapsis
70.517°
True anomaly
289.6061°
Mean anomaly
290.8247°
Eccentric anomaly
290.216°
Mean motion
3.72538 °/min
Orbital period
96.63 mins
BSTAR
0.0016276
Loading maneuver chart data...
Computing Atmospheric mass density...
Loading historical data...
Loading historical data...
Loading historical data...
Loading historical data...
Loading historical data...
Loading historical data...
Loading historical data...

Documentation

Showing up to 5 results
|